AirNav   Pilot Hours Calculator
 
 595 users online  

H66 Nowata Municipal Airport
Nowata, Oklahoma, USA

GOING TO NOWATA?


FAA INFORMATION EFFECTIVE 20 JUNE 2019

Location

FAA Identifier: H66
Lat/Long: 36-43-15.3200N / 095-37-30.9210W
36-43.255333N / 095-37.515350W
36.7209222 / -95.6252558
(estimated)
Elevation: 679 ft. / 207.0 m (surveyed)
Variation: 06E (1985)
From city: 2 miles NE of NOWATA, OK
Time zone: UTC -5 (UTC -6 during Standard Time)
Zip code: 74048

Airport Operations

Airport use: Open to the public
Activation date: 09/1945
Control tower: no
ARTCC: KANSAS CITY CENTER
FSS: MC ALESTER FLIGHT SERVICE STATION
NOTAMs facility: MLC (NOTAM-D service available)
Attendance: UNATNDD
Wind indicator: yes
Segmented circle: yes

Airport Communications

CTAF: 122.9
WX ASOS at BVO (19 nm W): 132.675 (918-336-2070)

Nearby radio navigation aids

VOR radial/distance  VOR name  Freq  Var
BVOr102/20.1BARTLESVILLE VOR/DME117.9008E
TULr006/32.4TULSA VORTAC114.4008E
OSWr210/33.1OSWEGO VOR/DME117.6008E

 
NDB name  Hdg/Dist  Freq  Var  ID
COFFEYVILLE182/22.521205ECFV -.-. ..-. ...-

Airport Services

Airframe service: NONE
Powerplant service: NONE
Bottled oxygen: NONE
Bulk oxygen: NONE

Runway Information

Runway 17/35

Dimensions: 2500 x 45 ft. / 762 x 14 m
Surface: asphalt, in good condition
Weight bearing capacity: 
Single wheel: 4.0
RUNWAY 17  RUNWAY 35
Traffic pattern: leftleft
Markings: nonenone
Obstructions: none36 ft. trees, 320 ft. from runway, 37 ft. left of centerline, 3:1 slope to clear
20 FT TREES AT RWY END 110 FT LEFT AND RIGHT OF CENTERLINE.

Runway 5/23

Dimensions: 2440 x 45 ft. / 744 x 14 m
Surface: turf/L
RY UNIDENTIFIABLE; RY EXTREMELY ROUGH & COVERED WITH TALL GRASS.
RUNWAY 5  RUNWAY 23
Traffic pattern: leftleft
Obstructions: 40 ft. pline, 325 ft. from runway, 8:1 slope to clear40 ft. trees, 700 ft. from runway, 17:1 slope to clear

Airport Ownership and Management from official FAA records

Ownership: Publicly-owned
Owner: CITY OF NOWATA
701 E MODOC
NOWATA, OK 74048
Phone 918-273-3538
Manager: CHARLIE SPENCER
701 E MODOC
NOWATA, OK 74048
Phone (918) 273-3538
CITY MANAGER.

Airport Operational Statistics

Aircraft based on the field: 7
Single engine airplanes: 7
    
Aircraft operations: avg 62/month *
75% local general aviation
25% transient general aviation
* for 12-month period ending 13 October 2017

Additional Remarks

-2 FT DITCH AT RY 23 THLD; -12 FT DITCH 220 FT FM RY 35 THLD.
FOR CD CTC KANSAS CITY ARTCC AT 913-254-8508.

Instrument Procedures

There are no published instrument procedures at H66.

Some nearby airports with instrument procedures:

KBVO - Bartlesville Municipal Airport (19 nm W)
KCFV - Coffeyville Municipal Airport (23 nm N)
KGCM - Claremore Regional Airport (27 nm S)
KIDP - Independence Municipal Airport (27 nm N)
1K8 - South Grand Lake Regional Airport (31 nm E)
 
Loc | Ops | Rwys | IFR | FBO | Links
Com | Nav | Svcs | Stats | Notes
Area around H66 (Nowata Municipal Airport)
 
Road maps at: MapQuest Bing Google
 
Aerial photo
WARNING: Photo may not be current or correct
Aerial photo of H66 (Nowata Municipal Airport)
Photo taken 22-Apr-2006

Do you have a better or more recent aerial photo of Nowata Municipal Airport that you would like to share? If so, please send us your photo.

 
Sectional chart

 
Airport distance calculator
Flying to Nowata Municipal Airport? Find the distance to fly.

From to H66

Sunrise and sunset
Times for 26-Jun-2019
 Local
(UTC-5)
 Zulu
(UTC)
Morning civil twilight05:3610:36
Sunrise06:0611:06
Sunset20:4401:44
Evening civil twilight21:1502:15

Current date and time
Zulu (UTC)  26-Jun-2019 11:06:35
Local (UTC-5)  26-Jun-2019 06:06:35
 
METAR
KBVO 
19nm W 
261053Z AUTO 00000KT 10SM CLR 19/18 A3006 RMK AO2 SLP168 T01940183
KCFV 
22nm N 
261052Z AUTO 17007KT 10SM CLR 19/18 A3002 RMK AO2 SLP159 T01940178 $
KGCM 
26nm S 
261055Z AUTO 13008KT 10SM CLR 19/17 A3008 RMK AO2
KIDP 
27nm N 
261055Z AUTO 19007KT 10SM CLR 19/18 A3003 RMK AO2 T01890179
KTUL 
34nm S 
261053Z 14008KT 10SM BKN026 BKN250 22/19 A3004 RMK AO2 SLP165 T02170189
KPPF 
37nm N 
261052Z AUTO 19005KT 10SM CLR 19/18 A3002 RMK AO2 SLP157 T01890178
TAF
KBVO 
19nm W 
260746Z 2608/2706 VRB11KT P6SM VCTS SCT050CB BKN110 TEMPO 2608/2609 35012G25KT -TSRA BKN080CB FM261200 VRB03KT P6SM BKN250 FM261700 18009G15KT P6SM SCT040 FM270000 VRB03KT P6SM SKC
NOTAMs
Click for the latest NOTAMs
NOTAMs are issued by the DoD/FAA and will open in a separate window not controlled by AirNav.

 

 
 

Would you like to see your business listed on this page?

 If your business provides an interesting product or service to pilots, flight crews, aircraft, or users of the Nowata Municipal Airport, you should consider listing it here.  To start the listing process, click on the button below
 
Add a business
 

Other Pages about Nowata Municipal Airport

Update a link
 
Copyright © AirNav, LLC. All rights reserved. Privacy Policy  Contact